Regional Weather Roundup
Issued by NWS

Home | Current Version | Previous Version | Graphics & Text | Print | Product List | Glossary On
Versions: 1 2 3 4 5 6 7 8 9 10 11 12 13 14 15 16 17 18 19 20 21 22 23 24 25 26 27 28 29 30 31 32 33 34 35 36 37 38 39 40 41 42 43 44 45 46 47 48 49 50
931
ASUS45 KSLC 210110
RWRUT

UTAH REGIONAL WEATHER ROUNDUP
NATIONAL WEATHER SERVICE SALT LAKE CITY UT
600 PM MST MON FEB 20 2017

UTZ001>011-023>025-210200-

NORTHERN UTAH

CITY           SKY/WX    TMP DP  RH WIND       PRES   REMARKS
BRIGHAM CITY     N/A     50  37  59 S6        29.96S
HILL AFB       CLOUDY    51  35  54 S17       29.96R
LOGAN          LGT RAIN  47  38  71 E3        29.96F
OGDEN          CLOUDY    52  36  54 S16       29.95S
SALT LAKE CITY MOCLDY    55  35  47 S21G31    29.95R
TOOELE VALLEY  MOCLDY    54  37  54 S24G37    29.97R
WENDOVER       MOCLDY    54  36  50 SW20      29.94R
HEBER CITY     CLOUDY    46  28  49 S12       30.03R
WEST JORDAN    CLOUDY    55  43  63 S20G28    29.98R

$$

UTZ011>015-024>027-210200-

CENTRAL/NORTHEAST UTAH

CITY           SKY/WX    TMP DP  RH WIND       PRES   REMARKS
PROVO AIRPORT  CLOUDY    52  35  52 SE10      30.03R
MOAB/CANYONLAN   N/A     52  37  56 SW12      30.12S
DELTA          PTCLDY    50  37  62 S30G40    30.07R
PRICE          CLOUDY    41  37  86 E6        30.14F
RICHFIELD      CLEAR     54  34  47 W9G21     30.09R
ROOSEVELT      CLOUDY    46  36  66 CALM      30.14S
VERNAL         CLOUDY    41  35  79 S5        30.12S

$$

UTZ013>016-019>022-027-210200-

SOUTHERN UTAH

CITY           SKY/WX    TMP DP  RH WIND       PRES   REMARKS
BRYCE CANYON   FOG       34  33  96 SE12      30.25R VSB 1/4 WCI  25
CEDAR CITY     PTCLDY    45  37  73 SW17G24   30.16R
MILFORD        CLOUDY    48  39  71 S20G29    30.13R
ST GEORGE      CLOUDY    55  45  68 N5        30.20R
HANKSVILLE     CLEAR     52  34  50 NW7G18    30.15R
KANAB          CLOUDY    48  41  76 W5        30.27R
BLANDING       CLEAR     46  32  56 CALM      30.31R

$$

REGIONAL REPORTS     COLORADO/ARIZONA

CITY           SKY/WX    TMP DP  RH WIND       PRES   REMARKS
CRAIG, CO      CLOUDY    42  31  64 CALM      30.12S
GRAND JUNCTION CLEAR     46  39  76 NW8       30.15R
RIFLE, CO      CLOUDY    50  34  54 CALM      30.15R
MONTROSE, CO   CLEAR     50  30  46 NW7       30.18R
CORTEZ, CO     CLEAR     47  33  58 CALM      30.25R
COLORADO CITY  CLOUDY    50  43  76 SW3       30.26S
PAGE, AZ       CLOUDY    54  35  48 N3        30.21R
GRAND CANYON   CLOUDY    46  40  79 SW7       30.29R
KINGMAN, AZ    CLEAR     56  36  47 SW15      30.24S
FLAGSTAFF, AZ  CLEAR     45  37  73 SW7       30.32R

$$

REGIONAL REPORTS    NEVADA/IDAHO/WYOMING

CITY           SKY/WX    TMP DP  RH WIND       PRES   REMARKS
LAS VEGAS, NV  MOCLDY    65  44  46 S8        30.11R
ELY, NY        MOCLDY    42  37  82 S17G25    30.05R
ELKO, NV       LGT RAIN  41  38  89 CALM      29.96F
POCATELLO, ID  LGT RAIN  44  38  79 S20G26    29.92S
BURLEY, ID     LGT RAIN  50  38  63 S13G22    29.88R
FORT BRIDGER,  CLOUDY    42  29  59 CALM      30.04R
EVANSTON, WY   CLOUDY    37  28  70 SW14      30.00S WCI  28
ROCK SPRINGS,  CLOUDY    40  27  59 S13       30.02S WCI  32
KEMMERER, WY     N/A     36  30  80 SW5       30.01S WCI  32

$$




USA.gov is the U.S. government's official web portal to all federal, state and local government web resources and services.